Location: Newark
(25.6667°N, 138.4167°E)
Time: 20:51:26
(UTC+00:00)

N. Korean satellite - Pass Details

Date: 19 September 2019
Orbit: 455 x 508 km, 97.2° (Epoch: 13 October)

Event Time Altitude Azimuth Distance (km) Brightness Sun altitude
Rises 19:38:16 0° 40° (NE) 2,466 10.9 -13.3°
Reaches altitude 10° 19:41:35 10° 76° (ENE) 1,592 10.7 -12.6°
Maximum altitude 19:42:43 11° 96° (E) 1,512 10.4 -12.3°
Drops below altitude 10° 19:43:52 10° 115° (ESE) 1,593 10.1 -12.0°
Sets 19:47:10 0° 151° (SSE) 2,471 10.5 -11.3°
